Philip, SD

12:27 AM MDT on April 25, 2017 (GMT -0600)
Philip

Weather History for KPHP - November, 2012

Change the Weather History Date:

Thursday, November 1, 2012

  Actual Average Record
Temperature  
Mean Temperature 40 °F 41 °F  
Max Temperature 42 °F 55 °F 80 °F (1978)
Min Temperature 38 °F 27 °F 4 °F (1984)
Degree Days  
Heating Degree Days 25 24  
Month to date heating degree days 25 24  
Since 1 July heating degree days 652 727  
Cooling Degree Days 0 0  
Month to date cooling degree days 0 0  
Year to date cooling degree days 1202 818  
Moisture  
Dew Point 38 °F    
Average Humidity 93    
Maximum Humidity 100    
Minimum Humidity 85    
Precipitation  
Precipitation 0.00 in 0.03 in 0.89 in (1992)
Month to date precipitation 0.00 0.03  
Year to date precipitation 6.80 16.33  
Sea Level Pressure  
Sea Level Pressure 29.96 in    
Wind  
Wind Speed 13 mph (East)    
Max Wind Speed 21 mph    
Max Gust Speed 25 mph    
Visibility 5 miles    
Events      
T = Trace of Precipitation, MM = Missing Value Source: NWS Daily Summary

Daily Weather History Graph

Daily Weather History Graph

Search for Another Location

Airport or City:

Trip Planner

Search our weather history database for the weather conditions in past years. The results will help you decide how hot, cold, wet, or windy it might be!

Date:

Astronomy

Nov. 01, 2012 Rise Set
Actual Time 7:23 AM MDT 5:35 PM MDT
Civil Twilight 6:53 AM MDT 6:05 PM MDT
Nautical Twilight 6:19 AM MDT 6:39 PM MDT
Astronomical Twilight 5:45 AM MDT 7:13 PM MDT
Moon 7:29 PM MDT (11/1) 10:02 AM MDT (11/1)
Length of Visible Light 11h 12m
Length of Day
10h 12m
Waning Gibbous, 92% of the Moon is Illuminated
Nov 1
Waning Gibbous
Nov 6
Last Quarter
Nov 13
New
Nov 20
First Quarter
Nov 28
Full

Hourly Weather History & Observations

Time (MDT) Temp. Windchill Dew Point Humidity Pressure Visibility Wind Dir Wind Speed Gust Speed Precip Events Conditions
12:55 AM 42.1 °F 38.4 °F 39.9 °F 92% 30.07 in 6.0 mi NNE 5.8 mph - N/A   Overcast
1:55 AM 41.0 °F 34.7 °F 39.0 °F 93% 30.06 in 6.0 mi NE 10.4 mph - N/A   Overcast
2:55 AM 41.0 °F 36.4 °F 39.0 °F 93% 30.06 in 7.0 mi ENE 6.9 mph - N/A   Overcast
3:55 AM 41.0 °F 38.0 °F 39.0 °F 93% 30.06 in 8.0 mi Variable 4.6 mph - N/A   Overcast
4:55 AM 39.9 °F 35.8 °F 39.0 °F 97% 30.06 in 7.0 mi East 5.8 mph - N/A   Overcast
5:25 AM 39.2 °F 34.2 °F 39.2 °F 100% 30.06 in 6.0 mi East 6.9 mph - N/A   Overcast
5:46 AM 39.2 °F 33.0 °F 39.2 °F 100% 30.06 in 1.8 mi East 9.2 mph - N/A   Overcast
5:55 AM 39.0 °F 32.8 °F 39.0 °F 100% 30.05 in 1.2 mi East 9.2 mph - N/A   Overcast
6:52 AM 37.9 °F 31.5 °F 37.0 °F 97% 30.06 in 3.0 mi ESE 9.2 mph - N/A   Overcast
7:50 AM 37.4 °F 30.8 °F 37.4 °F 100% 30.04 in 2.0 mi East 9.2 mph - N/A   Overcast
7:55 AM 39.0 °F 32.8 °F 37.9 °F 96% 30.06 in 1.5 mi ESE 9.2 mph - N/A   Overcast
8:22 AM 37.4 °F 29.8 °F 37.4 °F 100% 30.04 in 2.5 mi SE 11.5 mph - N/A   Overcast
8:55 AM 39.0 °F 32.3 °F 37.9 °F 96% 30.07 in 2.0 mi SE 10.4 mph - N/A   Overcast
9:05 AM 39.2 °F 32.5 °F 37.4 °F 93% 30.04 in 4.0 mi SE 10.4 mph - N/A   Overcast
9:55 AM 39.9 °F 32.5 °F 39.0 °F 97% 30.05 in 4.0 mi SE 12.7 mph - N/A   Overcast
10:55 AM 41.0 °F 33.5 °F 39.0 °F 93% 30.04 in 5.0 mi ESE 13.8 mph - N/A   Overcast
11:55 AM 41.0 °F 33.1 °F 39.0 °F 93% 30.02 in 7.0 mi ESE 15.0 mph 23.0 mph N/A   Overcast
12:55 PM 41.0 °F 33.9 °F 39.9 °F 96% 29.98 in 4.0 mi ESE 12.7 mph - N/A   Overcast
1:55 PM 42.1 °F 33.9 °F 39.9 °F 92% 29.95 in 6.0 mi East 17.3 mph 20.7 mph N/A   Overcast
2:55 PM 41.0 °F 32.2 °F 39.9 °F 96% 29.93 in 5.0 mi ESE 18.4 mph 24.2 mph N/A   Overcast
3:55 PM 41.0 °F 32.5 °F 39.9 °F 96% 29.90 in 2.5 mi ESE 17.3 mph - N/A   Overcast
4:04 PM 41.0 °F 32.8 °F 39.2 °F 93% 29.87 in 3.0 mi ESE 16.1 mph 21.9 mph N/A   Overcast
4:40 PM 41.0 °F 33.1 °F 39.2 °F 93% 29.87 in 2.5 mi East 15.0 mph 21.9 mph N/A   Overcast
4:47 PM 41.0 °F 32.8 °F 39.2 °F 93% 29.87 in 3.0 mi East 16.1 mph 23.0 mph N/A   Overcast
4:55 PM 41.0 °F 32.8 °F 39.9 °F 96% 29.89 in 4.0 mi East 16.1 mph 23.0 mph N/A   Overcast
5:55 PM 39.9 °F 32.1 °F 39.0 °F 97% 29.90 in 3.0 mi East 13.8 mph - N/A   Overcast
6:07 PM 39.2 °F 30.5 °F 39.2 °F 100% 29.87 in 2.0 mi East 16.1 mph - N/A   Overcast
6:14 PM 39.2 °F 30.8 °F 39.2 °F 100% 29.87 in 1.8 mi East 15.0 mph - N/A   Overcast
6:25 PM 39.2 °F 31.2 °F 39.2 °F 100% 29.87 in 2.0 mi East 13.8 mph - N/A   Overcast
6:39 PM 39.2 °F 30.5 °F 39.2 °F 100% 29.87 in 1.5 mi East 16.1 mph - N/A   Overcast
6:55 PM 39.0 °F 29.9 °F 39.0 °F 100% 29.91 in 1.5 mi East 17.3 mph - N/A   Overcast
7:04 PM 39.2 °F 29.8 °F 39.2 °F 100% 29.87 in 3.0 mi East 18.4 mph - N/A   Overcast
7:55 PM 39.0 °F 29.6 °F 37.0 °F 93% 29.90 in 9.0 mi East 18.4 mph - N/A   Overcast
8:09 PM 39.2 °F 30.2 °F 37.4 °F 93% 29.86 in 9.0 mi East 17.3 mph 25.3 mph N/A   Overcast
8:55 PM 39.0 °F 30.6 °F 36.0 °F 89% 29.89 in 10.0 mi East 15.0 mph - N/A   Overcast
9:55 PM 39.0 °F 30.6 °F 36.0 °F 89% 29.88 in 10.0 mi East 15.0 mph - N/A   Overcast
10:19 PM 37.4 °F 28.9 °F 35.6 °F 93% 29.86 in 10.0 mi East 13.8 mph - N/A   Overcast
10:55 PM 37.9 °F 28.9 °F 35.1 °F 89% 29.88 in 10.0 mi East 16.1 mph - N/A   Overcast
11:55 PM 37.9 °F 29.2 °F 33.1 °F 83% 29.88 in 10.0 mi ENE 15.0 mph - N/A   Overcast